ROMMA est une association bénévole à but non lucratif. Votre soutien est indispensable : ADHERER à ROMMA ou FAIRE un DON

Val-d'Arly - (73, Savoie)

Beaufortain (2050 m)   Longitude: 06° 35' 21" E   Latitude: 45° 46' 53" N Station romma n°118
 

Détail journalier du     <<     >>

Température Humidité Vent Dir Rafale Dir. rafale Ensol.
Heure (°C) (%) (km/h) (km/h) (min)
01:00
02:00
03:00
04:00 -4.0705SO11OSO0
05:00 -3.6601NO5OSO0
06:00 -4.2683NE8ENE0
07:00 -2.7558ENE18ESE0
08:00 -2.6544E11SE50
09:00 -3.0575ENE15ENE60
10:00 -3.2546E19E60
11:00 -2.45910E19E60
12:00 -1.2635ESE11SE60
13:00 -0.1614E13OSO60
14:00 0.6583O10O50
15:00 0.3614E8ENE40
16:00 0.2646ENE13ENE50
17:00 0.0686NE16NE40
18:00 -0.3719NE15NE0
19:00 -1.37518E23E0
20:00 -1.77917ESE24E0
21:00 -1.77919ESE29ESE0
22:00 -1.6777ENE18E0
23:00 -1.1739ESE16ESE0
minuit -1.4756SSO11SO0

Graphique du 27-03-2019

 

Serveur OMMA